GFSSE_850_thetae_000.txt.gz
Theta_e
317 317 325 328 332 334 333 333 330 328 326 325 325 326 328 326 324 324 325 327 329 333 328 329 328 331 328 328 327 326 325 324 323 323 325 323 323 328 337 335 332 333 334
315 316 314 318 325 328 330 331 329 328 327 327 327 331 327 327 331 327 326 330 334 334 335 334 326 326 326 324 323 322 322 322 321 321 320 323 324 329 336 336 334 336 335
320 315 315 316 316 322 328 330 329 329 332 332 332 333 332 332 328 326 325 327 331 334 331 327 325 324 324 326 325 325 324 324 325 325 323 320 323 327 336 335 333 334 333
324 321 317 317 313 317 329 332 331 333 334 333 334 334 330 327 325 325 324 323 323 322 322 323 323 323 323 322 321 321 321 321 323 324 325 324 321 323 329 333 331 327 325
322 323 318 317 313 316 333 330 330 333 333 334 331 324 322 321 318 317 319 321 322 322 322 322 320 317 318 318 319 319 318 318 319 321 323 324 324 322 324 330 330 325 324
321 321 318 314 313 314 322 328 329 331 331 318 316 316 315 315 313 313 313 314 314 315 315 314 314 313 312 312 311 311 310 310 310 311 312 315 321 323 324 326 333 332 326
319 320 318 315 314 314 316 317 319 321 323 321 316 313 312 311 310 309 308 308 308 308 307 306 305 305 304 304 304 304 304 304 304 304 304 306 311 318 323 326 329 330 330
318 319 320 316 314 314 314 314 314 315 315 314 313 310 308 307 305 304 304 304 304 304 303 303 303 303 303 303 303 304 304 304 304 304 304 304 304 309 315 319 323 328 329
316 318 320 318 315 314 314 313 313 312 312 311 309 307 305 304 304 304 304 303 303 303 303 302 303 303 304 304 305 305 305 305 305 305 304 304 304 304 306 310 316 320 325
316 316 318 320 315 314 313 312 312 310 309 308 307 306 304 305 305 305 304 303 303 303 304 304 305 305 305 305 306 306 306 305 305 305 304 303 303 303 304 304 307 311 318
316 315 315 318 317 314 313 312 311 309 308 307 307 304 304 305 305 304 303 303 303 304 304 304 304 305 305 305 305 305 305 305 305 304 304 303 303 303 303 303 303 306 311
316 316 315 316 317 315 314 313 311 309 308 308 307 304 304 305 306 305 304 303 303 304 304 304 304 304 304 304 304 304 304 304 304 304 304 303 302 302 301 302 302 302 303
316 316 316 315 316 317 315 313 312 309 308 308 307 304 304 305 307 306 304 303 303 303 303 303 304 304 304 304 304 304 304 304 304 304 303 303 302 301 300 300 301 301 301
316 316 316 316 315 316 316 314 313 311 308 308 307 304 304 305 306 306 304 303 303 303 303 303 304 304 303 303 303 303 303 303 304 303 302 301 301 301 300 300 300 301 301
315 315 315 316 315 315 316 315 314 312 309 307 307 305 303 304 305 305 305 304 304 303 303 304 304 305 304 304 303 303 303 303 303 302 301 300 300 300 300 299 299 300 301
315 315 315 315 315 315 315 315 315 314 311 308 307 307 304 303 304 305 305 304 303 303 303 304 304 304 303 303 302 302 302 302 302 302 301 299 299 299 299 299 299 299 300
317 315 315 315 315 315 314 314 315 315 312 309 307 307 306 303 303 304 303 303 302 302 302 303 303 303 303 303 302 301 301 301 301 301 300 299 298 298 298 298 298 298 299
317 317 316 315 315 314 314 314 313 314 314 311 307 306 306 303 302 303 303 301 301 301 301 302 302 302 302 302 302 301 301 301 301 300 298 297 298 297 297 297 297 297 297
315 316 317 316 315 315 314 313 313 312 312 311 308 306 305 304 303 302 302 301 300 300 300 301 301 302 302 302 301 300 300 300 300 299 297 297 296 296 296 296 296 296 296
314 314 315 316 315 315 314 313 312 311 310 310 307 305 304 304 303 302 301 300 299 298 299 300 301 301 301 301 301 300 300 299 299 297 297 296 296 296 296 295 295 295 295
314 314 314 314 315 315 315 314 312 312 310 309 308 306 304 304 303 302 301 299 299 298 298 299 300 300 300 300 300 300 299 298 297 296 295 295 295 294 294 295 295 295 295
314 314 314 315 315 315 315 314 313 312 311 309 308 306 304 303 302 302 300 299 298 298 297 298 299 300 300 299 299 299 298 297 297 296 295 295 295 295 294 294 294 294 294
314 314 314 314 314 314 313 312 311 310 309 308 306 305 304 303 302 302 300 299 298 297 297 298 298 299 299 299 298 298 298 297 296 296 296 295 295 294 294 294 295 294 294
314 315 314 313 313 313 313 312 312 312 311 311 310 308 306 304 303 302 300 298 297 297 296 297 297 298 298 298 298 297 298 297 296 295 295 295 294 293 293 294 294 294 293
314 315 314 313 312 311 312 312 312 311 310 310 309 308 306 304 303 301 300 298 297 296 296 296 297 297 297 297 297 297 297 297 296 295 295 294 293 292 292 292 292 292 292
313 314 315 313 313 312 310 310 310 310 310 310 309 308 306 304 303 302 300 299 298 297 295 295 296 296 296 296 296 296 296 296 296 296 294 293 293 293 292 292 291 291 291

GFSSE_850_thetae_003.txt.gz
Theta_e
323 328 329 328 328 329 331 331 328 325 326 327 327 328 327 327 326 323 323 323 325 329 328 331 331 328 327 327 325 324 324 323 322 322 324 323 323 333 336 334 330 332 335
319 324 328 328 328 328 330 330 330 328 326 325 325 325 326 327 334 334 330 331 334 336 335 333 328 324 324 322 323 323 323 322 322 321 320 322 324 333 335 334 337 337 334
317 319 320 324 325 326 326 329 329 327 326 326 325 329 328 326 326 330 327 330 332 335 335 331 326 324 325 326 324 324 323 323 324 325 324 321 323 328 333 334 332 331 330
321 316 315 315 316 319 323 331 330 327 327 332 331 334 333 332 324 322 324 325 329 329 324 322 324 323 323 323 322 322 322 322 322 322 324 324 322 323 329 335 333 328 325
322 319 316 315 315 312 319 331 330 329 332 332 333 335 331 327 322 321 322 322 324 322 323 323 322 319 317 316 315 315 315 314 314 314 317 321 323 323 324 328 331 329 325
322 322 320 317 316 312 321 328 329 331 333 334 334 330 326 323 319 316 315 317 320 320 317 316 315 314 313 311 310 309 308 307 307 307 309 311 316 322 327 325 329 333 332
322 322 322 318 316 313 317 327 324 332 334 332 321 318 317 315 314 313 313 313 313 313 312 310 308 306 305 304 304 304 304 304 304 304 304 304 308 315 318 323 325 330 331
321 320 321 320 316 313 315 319 320 322 326 326 321 316 313 312 310 309 308 307 306 305 305 304 304 303 303 303 304 304 304 304 304 304 304 304 304 307 311 316 320 324 326
318 318 319 320 317 315 314 315 316 318 320 320 317 312 310 307 306 304 304 304 304 304 303 303 303 304 305 306 306 307 307 307 306 305 304 304 304 304 304 308 314 318 322
317 316 316 319 320 316 315 315 314 314 314 313 312 311 307 305 304 305 305 304 303 302 303 304 305 305 306 305 306 306 306 306 307 307 306 304 303 303 303 304 305 309 313
316 316 315 316 319 319 315 314 314 313 313 311 310 308 307 304 305 305 305 304 304 304 304 305 305 305 305 305 305 305 305 305 305 305 306 305 304 303 303 303 303 303 305
316 316 316 315 315 319 317 314 313 313 312 310 309 308 306 304 305 305 305 304 304 304 304 304 304 305 305 305 305 305 305 305 305 305 305 304 304 303 302 302 302 302 302
316 316 316 316 315 316 318 316 313 313 312 309 308 308 305 304 305 306 306 304 304 304 304 304 304 304 304 304 304 304 304 304 304 304 304 303 302 302 302 302 301 301 301
315 315 316 316 316 315 317 317 315 313 312 310 308 307 305 304 305 307 306 304 304 304 304 304 304 304 304 304 304 304 304 303 303 303 303 303 302 301 300 301 301 301 301
315 315 315 315 316 316 316 316 316 315 313 312 308 307 306 304 304 305 305 305 304 304 304 304 304 304 304 304 304 304 303 303 302 303 303 302 302 301 300 300 300 300 301
316 316 315 315 315 315 316 316 316 316 315 313 310 307 307 305 303 304 305 305 305 304 303 303 303 304 304 304 303 303 302 302 302 302 302 302 301 300 300 299 300 300 301
316 316 316 315 315 315 315 315 316 316 316 314 312 309 307 306 304 303 304 304 304 303 303 303 303 304 303 303 303 303 302 301 301 302 302 300 299 298 298 299 299 299 302
315 315 316 316 316 315 315 315 315 315 315 315 314 311 307 306 304 302 303 303 302 302 302 302 302 303 303 303 302 302 301 301 301 300 299 298 297 297 298 298 297 297 298
314 314 314 314 315 316 315 314 315 315 315 315 315 313 309 306 305 302 301 302 301 301 301 301 302 302 302 302 301 301 301 301 300 300 298 297 296 296 296 296 296 297 297
313 312 313 313 313 314 314 314 314 314 314 314 314 314 311 307 305 303 301 301 301 300 300 300 300 301 301 301 300 300 300 300 299 298 297 297 296 296 296 296 296 296 296
314 313 313 313 313 313 314 314 313 314 314 313 313 313 313 309 305 304 302 301 300 300 300 299 299 300 300 300 300 299 299 299 297 295 294 294 295 295 295 295 295 296 296
314 314 313 313 313 313 313 314 313 314 314 313 313 312 312 309 306 304 302 301 300 300 299 298 298 299 299 300 300 299 299 297 297 296 295 295 294 294 294 294 294 294 295
314 313 314 312 312 313 313 313 312 312 311 312 312 311 310 309 307 304 303 302 300 299 299 298 298 298 299 299 299 299 299 299 298 297 296 295 294 294 294 294 294 294 293
314 313 313 313 312 311 310 311 312 313 313 313 312 311 310 309 307 305 303 302 301 299 298 298 297 297 298 299 299 298 298 298 298 297 296 295 293 293 292 293 293 293 293
311 311 311 312 311 310 311 311 309 310 311 312 311 311 310 308 307 305 304 302 301 299 298 297 297 296 297 298 298 298 298 298 297 298 297 296 293 292 292 292 292 292 292
310 309 309 309 308 308 308 308 308 309 308 309 310 310 310 308 306 305 303 302 301 300 299 297 296 296 296 297 298 298 298 297 297 297 297 296 294 292 292 292 292 292 291

GFSSE_850_thetae_006.txt.gz
Theta_e
325 329 329 329 330 331 331 332 331 331 332 332 331 329 327 325 324 323 323 322 326 334 329 329 331 332 331 327 325 325 324 323 322 322 323 323 324 332 335 331 336 337 338
320 327 328 328 328 329 329 330 329 326 327 328 327 328 329 329 328 326 325 324 330 337 335 331 330 324 324 322 322 323 323 322 322 321 320 323 326 331 334 334 335 336 334
318 325 328 328 328 327 327 329 330 328 326 326 326 325 325 326 326 329 327 329 334 335 336 330 326 324 323 324 324 324 322 322 323 324 324 322 323 330 332 334 332 330 329
319 321 324 326 327 327 325 325 327 328 327 326 327 327 331 331 331 325 325 330 332 334 330 322 323 324 323 323 322 323 322 322 321 321 322 324 323 324 329 332 333 331 326
320 318 319 322 322 323 324 321 324 328 327 329 333 332 334 333 327 322 324 326 327 326 323 323 323 322 319 316 315 315 315 314 314 313 314 319 323 324 325 329 331 330 326
321 318 316 315 317 318 317 317 326 325 326 334 333 334 334 324 320 319 317 319 321 321 321 319 317 315 314 311 309 308 307 307 306 306 308 311 318 324 330 329 329 332 333
322 321 319 316 315 315 313 316 325 327 330 332 333 324 319 316 315 315 314 313 314 315 315 314 311 307 305 304 304 304 304 304 304 304 304 304 311 317 321 324 327 330 331
321 322 322 321 318 316 313 318 325 326 332 334 329 319 316 313 312 312 312 311 310 310 308 306 304 303 303 303 304 305 305 305 305 304 304 303 304 308 312 317 321 326 327
319 321 321 321 321 318 314 315 321 322 330 333 330 318 314 311 310 309 307 306 305 304 303 303 303 303 304 306 307 307 307 308 307 307 305 304 304 304 304 307 312 317 320
317 318 319 320 321 320 316 314 316 319 321 325 324 317 313 310 307 305 305 304 304 304 303 303 304 305 306 306 306 307 307 307 307 307 307 307 305 304 304 304 304 306 309
316 317 317 317 319 320 318 315 315 316 316 317 319 315 312 309 306 304 304 304 304 303 303 304 305 305 305 305 305 305 305 306 306 306 306 306 306 305 305 304 303 303 304
316 316 316 316 316 318 319 318 315 315 315 315 314 313 312 308 305 304 305 304 303 303 303 304 304 304 305 305 305 305 305 305 305 305 305 305 305 304 304 303 303 302 302
315 316 316 316 316 316 317 319 317 315 314 314 313 311 310 307 304 304 305 304 303 303 304 304 304 304 304 304 305 305 305 305 304 304 304 304 303 302 302 302 302 302 302
315 315 315 316 316 316 316 317 318 316 314 313 313 311 309 307 305 304 305 305 304 304 304 304 304 304 304 304 305 305 304 304 304 304 304 303 303 301 300 300 301 301 302
315 315 315 315 315 316 316 316 317 317 315 314 313 312 309 307 306 304 305 305 304 304 304 304 304 304 304 304 304 304 304 304 303 303 303 303 302 301 300 300 300 301 305
315 315 315 315 315 315 316 316 316 316 316 315 314 313 310 307 307 304 304 305 305 304 303 303 303 304 304 304 304 304 304 303 303 303 302 302 301 299 299 299 300 301 302
314 314 314 315 315 315 315 315 316 316 316 316 315 314 312 308 307 304 303 304 304 304 303 303 303 304 304 304 303 303 303 302 302 302 301 300 300 299 298 298 300 309 311
314 314 314 313 314 315 315 315 315 316 316 316 316 315 313 310 307 305 303 303 303 303 302 302 303 303 303 303 303 302 302 302 301 301 300 299 298 297 297 297 297 299 300
314 314 313 313 313 314 314 314 315 315 316 316 316 316 315 312 308 306 304 302 302 302 302 302 302 302 302 302 302 301 301 301 301 300 299 297 297 296 296 296 296 296 296
311 312 312 312 312 312 312 313 313 314 315 316 316 316 316 314 310 306 305 303 302 302 301 301 301 301 301 301 301 301 300 300 300 299 298 297 296 296 295 295 296 296 295
312 312 311 310 311 311 311 311 312 313 314 315 315 315 316 315 312 307 305 304 301 301 301 301 300 300 300 300 300 299 299 299 298 298 297 295 295 295 295 295 295 295 295
311 311 310 310 310 310 310 310 310 311 312 314 315 316 316 316 314 310 307 305 303 301 300 300 299 299 299 300 299 299 298 297 297 297 295 295 294 294 294 294 294 294 294
310 310 310 309 308 309 309 308 308 309 310 311 312 313 315 316 316 313 308 306 304 301 300 300 299 299 299 299 299 300 299 301 298 297 296 294 294 294 294 294 294 294 293
308 308 308 308 308 307 306 305 306 307 308 309 310 311 312 314 316 314 310 307 304 301 300 300 299 298 298 299 299 299 300 300 299 297 296 295 295 294 293 293 293 293 293
306 309 308 307 305 305 304 303 304 304 304 304 305 306 307 308 312 314 312 307 304 301 300 300 299 298 298 298 298 299 299 299 298 299 297 296 294 294 293 292 292 292 292
306 306 306 305 304 303 303 302 302 302 302 303 303 303 303 304 306 310 312 308 303 301 300 300 299 298 298 297 297 298 299 299 298 298 297 296 295 294 293 293 292 292 291

GFSSE_850_thetae_009.txt.gz
Theta_e
333 333 330 331 329 330 331 333 333 334 334 334 333 332 329 327 324 324 323 322 328 333 330 331 332 331 323 326 326 324 324 323 322 322 323 331 330 334 334 331 337 337 338
331 329 328 329 330 329 330 332 333 331 331 332 331 329 328 327 327 326 325 324 332 335 335 331 328 327 325 323 323 323 323 323 323 321 322 327 331 333 333 335 335 334 333
325 330 328 328 329 330 331 331 330 329 327 327 327 327 327 327 327 328 330 329 333 336 337 332 328 326 323 324 325 323 322 321 322 324 324 335 327 330 332 333 332 329 328
319 328 327 328 328 329 329 330 330 329 327 326 326 326 325 327 327 326 328 330 333 335 335 328 322 323 323 323 322 323 323 322 322 322 324 326 332 327 329 330 331 331 328
321 319 323 327 328 328 328 329 328 330 329 327 325 327 330 332 332 326 324 324 329 330 325 325 322 323 321 317 316 315 314 314 314 314 316 320 327 331 327 329 332 330 329
323 318 319 321 327 327 328 327 326 326 328 326 327 333 333 334 323 320 319 324 324 323 321 322 319 316 314 312 309 308 307 307 306 307 308 312 330 329 331 330 329 329 331
323 321 319 317 318 321 323 322 321 325 328 325 334 334 332 323 317 316 317 316 315 315 316 315 314 310 307 305 304 304 304 304 304 304 304 311 317 317 323 324 327 328 329
320 322 320 318 316 315 315 315 315 321 325 328 334 332 328 316 313 313 314 313 313 313 311 309 306 304 303 303 304 304 305 305 305 305 304 304 304 306 308 314 318 323 325
317 319 322 321 319 316 317 315 313 318 324 326 332 331 324 317 312 311 311 310 309 308 306 304 303 303 303 305 306 307 307 307 307 307 306 306 305 304 305 305 309 314 318
316 317 319 321 321 321 319 317 314 321 323 323 332 330 326 317 311 309 308 306 305 304 304 303 303 304 306 306 306 306 306 307 307 307 307 307 306 306 305 304 304 304 308
316 316 317 319 321 320 321 319 315 316 322 323 329 328 323 317 311 308 306 305 304 304 303 303 304 305 305 305 306 306 306 306 306 306 307 307 306 306 305 305 303 303 303
316 316 316 318 318 320 323 323 319 315 318 322 324 326 321 318 312 308 305 305 304 303 303 303 305 305 305 305 305 305 305 306 306 306 306 306 306 306 306 304 303 302 303
321 322 316 316 317 318 320 320 321 317 315 317 320 325 318 318 313 308 304 305 304 303 303 304 304 304 305 305 305 305 305 305 305 305 305 305 305 305 304 303 303 303 302
319 320 319 316 316 317 318 319 319 320 318 316 317 320 320 317 313 308 304 305 305 304 303 304 304 304 305 305 305 306 306 306 306 305 305 305 305 304 302 302 301 302 302
314 315 317 316 315 315 316 317 317 319 320 318 319 322 318 314 311 309 304 305 306 305 304 304 304 304 305 305 305 305 305 305 305 304 304 304 304 303 301 301 301 307 312
315 314 314 315 315 315 315 316 316 317 320 320 319 317 315 314 312 309 306 304 305 305 304 304 304 304 304 305 305 304 304 304 304 304 303 303 303 302 301 300 303 306 308
314 314 314 314 315 314 315 315 316 317 317 318 318 317 315 314 313 310 307 304 304 305 304 303 303 303 304 304 304 304 303 303 303 303 302 302 302 301 300 299 302 313 315
314 313 313 313 313 314 314 315 315 316 317 318 318 317 316 314 313 310 307 306 304 305 304 303 303 303 303 303 303 303 303 303 302 302 302 301 301 300 299 298 299 306 309
311 312 312 312 312 313 314 318 320 319 319 319 319 318 317 315 314 312 308 306 304 304 304 303 302 302 302 302 303 302 302 302 302 302 301 300 300 299 298 297 296 298 300
310 310 310 310 310 311 312 315 320 320 320 320 319 319 318 317 315 313 309 307 304 303 302 302 302 302 302 302 302 302 301 301 301 301 300 299 298 297 297 296 296 296 296
310 309 308 308 309 309 313 313 316 319 320 319 318 318 317 317 316 314 311 308 305 303 301 302 301 300 300 301 301 300 300 300 300 300 300 299 298 297 296 295 295 295 295
308 308 308 306 306 307 312 314 315 316 317 318 317 316 316 316 316 315 313 310 307 304 301 300 300 300 299 301 301 300 299 298 298 299 299 298 297 296 295 295 295 294 293
306 305 305 306 306 305 307 309 310 313 312 312 313 313 314 313 312 313 314 311 309 306 303 301 300 300 300 300 299 301 301 301 300 298 297 296 295 295 295 294 294 294 292
304 304 303 303 304 305 304 305 307 308 307 307 307 308 309 310 311 312 313 313 311 309 305 303 300 299 298 299 299 300 301 302 301 298 296 295 294 295 295 295 294 294 293
304 303 303 304 303 302 302 302 302 303 304 305 304 303 304 304 305 307 309 312 310 310 308 306 303 299 298 298 299 299 299 300 301 301 298 297 296 296 297 296 294 293 292
301 302 303 303 303 304 304 303 301 301 300 301 302 301 301 302 302 303 304 306 308 308 308 306 304 301 299 298 298 298 299 299 299 299 300 298 298 297 297 296 294 293 292

GFSSE_850_thetae_015.txt.gz
Theta_e
328 333 330 331 331 331 330 330 332 335 335 334 334 333 331 329 326 323 322 322 329 333 329 325 321 321 321 324 324 323 322 322 322 327 334 330 330 331 333 334 337 336 335
327 328 330 331 331 331 332 333 333 334 334 333 332 331 330 327 325 324 324 324 333 332 335 329 326 326 324 321 322 323 322 322 322 323 329 332 330 329 331 332 333 331 329
326 326 329 330 331 330 330 329 330 331 332 331 330 329 328 326 326 326 325 325 332 335 333 330 324 323 321 324 323 321 321 322 323 326 327 332 331 330 328 330 330 328 326
324 327 326 328 329 329 329 328 329 330 330 329 327 326 325 328 325 325 326 329 335 335 331 332 322 321 322 322 321 320 321 321 321 323 325 327 332 331 330 328 327 327 327
322 324 323 328 328 329 328 328 329 328 328 327 326 326 325 324 323 323 326 330 332 330 330 328 324 320 321 319 316 315 315 316 317 319 322 326 327 332 329 329 328 329 326
319 321 321 326 327 328 328 328 328 327 326 327 326 326 325 326 326 325 326 326 326 325 326 324 321 318 316 314 313 311 310 310 310 311 313 318 325 327 325 332 331 329 326
317 319 320 322 326 327 328 328 328 327 326 325 325 326 327 331 329 317 320 321 325 320 318 318 317 315 313 310 307 306 305 305 304 305 306 311 314 318 324 327 331 328 325
316 317 319 319 320 323 326 326 327 327 327 327 326 329 329 332 328 318 315 316 316 315 314 314 313 311 307 305 304 304 305 305 304 305 305 305 307 309 309 309 314 316 316
316 316 317 318 320 320 323 326 326 327 327 326 324 329 330 334 330 321 313 312 312 312 312 311 309 306 304 303 304 306 307 307 307 307 307 307 307 306 306 306 307 309 311
316 317 317 317 319 320 319 321 324 324 323 323 322 329 330 334 333 325 319 311 310 310 309 307 305 304 303 305 307 307 307 307 307 307 307 307 307 307 306 305 305 305 306
316 316 317 317 317 318 320 319 319 319 319 319 321 326 326 332 332 327 321 315 309 308 306 305 304 304 304 306 306 306 306 306 306 306 306 306 306 306 306 306 305 305 305
317 316 318 318 316 317 319 320 319 318 317 318 318 324 326 327 330 329 326 322 310 307 306 305 304 303 305 306 306 306 306 306 306 307 306 306 306 306 306 306 305 305 305
316 316 316 318 319 318 317 318 320 319 320 319 317 321 327 326 328 329 326 320 312 307 306 306 305 304 305 306 306 306 307 308 308 307 307 307 306 306 305 305 305 305 305
316 315 316 317 318 319 319 318 319 320 321 321 320 326 332 332 325 324 323 321 314 308 306 306 304 305 306 305 306 307 307 307 308 308 308 308 307 306 305 305 304 304 304
316 316 315 315 315 316 318 320 322 324 323 324 324 323 326 332 334 328 318 319 317 310 306 306 305 304 305 305 306 306 306 307 307 307 307 307 307 306 305 305 304 303 306
315 315 315 315 315 315 317 319 321 324 327 327 327 326 326 332 334 332 323 318 317 312 306 305 305 304 304 305 305 306 306 306 306 307 307 307 306 305 305 304 304 305 311
313 313 314 315 315 314 318 320 321 323 327 329 327 326 326 326 326 331 328 322 318 314 308 305 305 304 304 304 304 305 306 306 306 306 306 306 306 306 305 304 303 303 305
312 313 313 313 314 314 315 320 322 322 323 326 327 328 330 328 325 328 330 326 323 317 311 306 305 305 304 304 304 304 305 305 305 305 305 305 305 305 304 303 302 302 308
309 310 311 312 312 314 315 321 325 325 325 325 326 328 326 326 327 327 328 327 325 320 313 309 306 306 304 303 303 303 304 304 304 304 304 304 305 305 303 302 301 301 304
308 308 309 310 311 312 313 317 324 325 324 324 324 324 324 324 324 324 324 325 323 319 316 312 309 307 304 302 301 302 302 303 303 304 303 303 303 304 304 303 301 299 301
306 307 307 308 309 310 310 312 316 321 322 321 321 321 321 321 321 320 320 321 320 319 317 315 310 308 305 301 300 300 301 301 302 303 303 302 303 303 303 302 301 299 298
306 306 306 306 307 309 312 313 314 316 318 318 318 318 319 319 318 317 317 317 317 317 315 314 312 308 305 301 300 299 300 300 302 302 302 302 302 302 302 302 301 299 298
305 305 306 305 305 305 306 307 309 312 314 316 315 315 315 315 315 314 314 313 314 313 314 313 311 309 305 302 300 299 299 300 302 302 302 301 301 301 301 302 301 300 298
304 304 305 306 306 307 306 306 305 304 305 306 306 307 307 308 311 310 311 310 310 309 309 310 309 307 305 302 300 299 299 300 301 301 301 301 301 300 300 301 301 299 300
302 303 303 305 305 305 306 306 306 305 303 302 303 303 302 302 302 302 303 306 307 306 306 305 306 305 304 302 300 299 299 299 300 301 301 302 301 302 301 300 300 299 300
300 300 301 302 303 303 304 304 304 304 303 303 302 302 301 300 300 301 301 301 300 303 305 305 304 304 302 302 301 299 298 298 298 300 300 301 301 301 301 301 300 300 300

GFSSE_850_thetae_021.txt.gz
Theta_e
326 330 333 333 333 331 329 329 329 329 330 332 333 333 331 328 325 322 322 323 335 335 334 322 320 323 323 322 321 321 322 323 331 334 330 330 336 331 332 335 334 337 337
325 329 332 333 332 332 330 328 327 329 332 333 333 332 330 328 325 323 323 333 337 335 332 325 324 321 320 323 323 322 322 322 324 328 327 327 329 329 330 330 330 329 334
323 326 330 332 332 332 333 331 330 333 333 333 332 331 330 327 325 324 324 332 335 332 332 325 322 321 323 321 319 320 321 321 322 324 328 327 326 327 326 327 327 326 325
322 323 328 330 330 331 331 330 331 332 331 331 330 329 328 326 325 325 324 326 330 334 332 330 322 321 321 321 320 320 320 320 320 322 323 326 329 330 328 326 324 325 325
319 323 323 329 330 330 330 330 331 330 329 329 329 327 326 325 325 324 323 325 332 334 331 327 328 321 321 321 319 318 319 320 321 321 322 322 323 331 330 328 327 327 324
317 321 325 326 329 330 330 330 329 328 328 328 327 326 328 328 323 321 326 330 331 332 327 323 325 321 319 317 314 313 313 313 314 316 317 318 319 328 326 327 328 328 327
316 318 322 323 326 329 329 329 328 328 327 327 325 325 324 324 324 323 324 327 331 329 317 319 320 318 316 314 312 310 309 308 308 310 311 313 317 320 325 328 329 329 330
316 317 320 322 322 326 328 329 329 328 328 328 326 326 328 325 328 326 321 319 320 320 314 315 315 314 314 311 307 305 305 304 304 304 305 307 310 313 313 315 313 321 325
316 316 317 319 322 324 328 328 328 328 328 329 327 329 329 328 331 331 329 322 313 313 312 312 312 312 310 307 304 303 304 305 306 306 306 306 307 307 307 307 306 307 308
316 316 316 316 318 321 323 326 328 329 329 329 328 328 328 328 331 330 330 329 319 314 310 310 310 309 306 304 304 304 306 307 307 307 307 307 308 307 307 307 307 306 306
316 316 316 316 316 317 318 321 324 328 331 332 331 331 329 327 327 330 329 331 327 320 313 309 308 306 304 303 304 306 307 307 307 307 307 307 307 307 307 307 307 307 306
316 317 318 318 318 319 319 319 322 324 332 333 334 335 332 331 329 332 328 331 331 327 324 312 307 305 304 303 304 306 306 306 306 307 307 307 307 307 307 307 307 306 306
314 315 316 316 318 319 320 319 319 321 328 334 337 332 333 331 331 331 334 333 331 330 328 323 309 305 303 303 304 306 306 306 307 307 307 308 308 308 308 307 306 306 306
314 314 315 315 316 317 318 319 320 321 322 325 329 336 334 332 331 331 329 330 329 331 330 327 319 306 303 302 303 305 305 306 306 307 308 308 308 308 308 308 307 306 306
313 314 314 315 315 315 316 319 320 321 322 324 325 326 329 330 329 329 329 327 328 326 328 327 325 311 305 302 302 304 304 305 306 307 307 307 307 308 308 307 307 306 306
313 313 314 314 315 315 315 317 322 323 323 325 327 328 328 326 328 325 327 327 327 326 325 324 323 320 308 304 302 302 303 304 305 306 307 307 307 307 307 307 307 306 305
311 311 312 313 314 314 315 317 321 326 327 327 327 328 329 328 327 327 326 326 326 325 325 326 325 322 317 307 304 302 302 303 304 305 306 306 306 306 306 307 306 305 305
309 309 310 311 312 314 315 315 321 327 330 330 328 327 327 328 327 327 326 325 324 324 324 323 323 323 322 316 308 305 302 302 302 303 304 305 305 305 305 306 306 306 304
308 309 310 312 312 314 315 316 323 328 328 326 326 324 324 324 323 324 325 325 324 323 323 323 324 321 321 320 312 308 305 303 302 302 304 305 305 305 305 305 305 305 305
307 308 310 312 315 316 316 320 325 327 325 323 323 322 322 322 323 324 323 324 324 324 325 326 323 320 318 319 315 312 309 307 304 301 302 303 304 304 305 304 304 304 304
306 307 308 309 310 312 316 318 322 324 321 319 318 318 319 319 319 320 320 320 320 320 318 317 318 317 316 315 315 314 313 311 308 303 301 301 302 303 303 304 303 303 303
305 306 306 307 307 309 311 313 315 319 320 318 317 316 316 316 316 316 317 317 316 316 316 315 315 314 314 313 313 312 310 310 310 307 303 301 301 301 302 302 302 302 302
305 306 307 306 306 306 306 308 311 313 314 315 315 313 313 313 312 313 313 313 313 313 312 312 312 311 310 310 310 308 306 303 302 300 300 300 300 300 300 301 301 302 301
303 304 305 306 306 306 305 305 305 305 306 304 303 303 302 303 304 306 308 309 309 308 309 308 308 308 307 307 306 306 305 304 302 302 303 302 299 299 299 300 300 300 300
300 301 301 302 302 302 302 303 303 303 303 301 301 301 301 300 300 300 300 300 301 301 302 304 305 305 305 305 304 304 302 301 300 299 298 300 301 300 299 298 299 299 300
299 300 300 301 302 301 301 301 301 300 300 300 299 299 298 297 297 297 296 296 296 297 298 298 298 298 300 302 303 303 302 300 299 298 297 297 298 299 298 298 298 298 299

GFSSE_850_thetae_024.txt.gz
Theta_e
326 331 333 334 334 332 331 334 334 332 332 333 334 333 330 328 324 323 322 329 336 336 327 321 320 323 322 322 322 322 322 325 329 331 329 336 332 331 334 334 336 339 338
324 329 331 333 333 331 329 330 331 329 331 333 333 332 330 327 325 323 324 336 335 334 331 324 323 319 320 322 322 322 322 324 326 328 326 327 328 328 329 329 329 331 338
323 327 329 331 332 332 330 328 327 328 332 333 332 331 330 328 325 324 324 335 335 330 331 324 321 321 323 320 319 320 321 322 322 324 327 326 325 325 326 327 327 326 326
323 325 328 330 330 331 332 331 330 332 334 332 332 330 329 327 325 325 325 329 328 334 333 329 323 321 321 320 320 320 320 320 321 322 323 325 327 329 327 326 324 324 325
320 324 326 329 329 330 331 330 330 331 330 329 329 328 327 325 324 324 323 324 332 333 333 326 327 323 320 320 319 318 318 319 320 320 321 321 322 330 329 325 326 326 324
318 322 325 328 329 330 329 329 330 329 327 327 326 325 325 325 324 322 321 331 331 330 330 323 323 323 319 317 315 313 313 313 313 314 314 315 317 327 328 329 327 329 327
316 319 324 325 328 330 330 330 330 329 328 328 328 326 329 326 323 323 323 326 329 331 319 315 319 319 317 315 313 310 308 308 308 308 309 310 313 317 323 324 327 328 329
315 315 317 321 324 327 330 330 331 330 329 328 328 327 329 326 325 327 326 318 319 315 313 313 313 314 314 312 308 305 305 304 304 304 304 306 308 310 312 313 316 311 310
316 316 318 319 321 323 325 329 329 329 329 329 329 328 328 328 328 330 330 329 324 316 312 310 311 311 311 308 304 303 303 304 306 307 307 307 307 308 308 308 307 307 307
316 317 317 319 321 323 325 327 328 329 329 329 330 329 328 329 328 329 330 330 330 323 317 310 309 309 308 304 303 303 304 306 307 307 307 307 307 307 307 307 307 307 307
316 316 317 318 319 321 322 323 326 328 330 332 332 331 330 330 328 329 328 330 330 330 324 321 310 307 306 304 303 303 305 306 306 306 306 306 307 307 307 307 306 306 306
315 315 316 316 317 319 321 323 325 328 331 332 332 332 331 331 330 332 332 330 331 331 330 327 323 309 305 303 302 303 305 305 305 306 306 307 307 307 307 307 307 307 307
314 313 314 315 316 316 317 319 321 326 327 331 332 332 332 330 330 329 329 329 330 329 330 329 327 319 306 303 302 303 304 305 305 306 306 307 307 308 308 308 307 307 307
313 313 314 314 315 316 316 317 319 321 323 326 332 331 330 330 331 329 329 327 328 328 327 329 326 325 314 305 302 302 304 304 305 305 306 307 307 307 307 307 307 307 307
312 313 313 313 314 315 316 317 320 322 323 325 330 331 332 330 329 328 326 327 327 326 326 325 324 323 323 311 304 302 302 304 304 305 306 306 306 307 307 307 307 307 307
311 312 312 313 313 314 315 317 321 325 326 327 328 329 329 328 328 328 327 325 324 327 326 324 323 324 322 321 311 305 302 302 303 304 305 306 306 306 307 307 307 307 306
311 311 310 311 312 313 314 317 323 326 328 329 327 329 330 327 326 326 327 325 325 324 323 322 325 323 322 322 319 312 306 303 302 303 303 304 306 306 306 306 306 306 306
308 309 310 311 311 313 315 318 324 328 329 327 326 326 325 328 328 327 327 328 327 324 323 322 322 321 321 320 319 320 314 308 304 301 302 303 304 305 305 306 306 305 305
308 310 312 313 313 315 318 320 324 327 326 325 326 325 324 324 324 325 325 325 326 326 325 323 323 323 324 321 319 317 317 313 309 306 302 301 302 303 304 304 305 304 304
308 309 311 314 315 317 321 324 327 326 323 322 322 322 321 321 321 322 323 323 323 323 322 322 320 320 319 318 317 316 315 315 314 313 309 306 301 301 302 303 303 303 303
307 308 309 310 313 317 318 320 323 324 319 318 317 317 317 316 317 318 318 318 318 318 318 317 316 316 316 315 315 314 314 314 314 314 313 311 307 303 300 301 301 302 302
305 306 307 308 310 311 312 314 318 320 318 316 316 315 315 314 315 315 315 315 315 315 315 314 313 313 313 312 311 311 310 310 310 305 302 302 301 300 301 300 300 301 301
305 305 306 306 307 307 308 309 311 313 314 314 312 310 308 308 310 310 309 309 310 311 311 310 310 309 309 309 309 307 305 303 306 307 307 307 307 304 299 299 299 299 299
304 304 304 304 305 304 305 305 305 305 305 304 304 303 303 303 303 302 302 302 302 302 304 306 307 306 305 306 306 306 304 302 300 301 303 305 307 307 306 304 300 299 298
301 301 302 302 303 303 303 303 303 303 302 302 301 301 300 300 299 299 299 298 298 298 298 299 299 299 300 302 302 303 303 303 303 300 300 301 303 305 305 305 304 303 301
299 299 300 302 302 302 302 301 301 301 299 298 297 296 295 295 294 294 293 292 292 291 290 290 290 291 293 295 296 297 298 298 299 299 298 300 300 301 302 304 305 305 305

GFSSE_850_thetae_027.txt.gz
Theta_e
328 331 332 334 335 334 334 334 334 333 334 334 333 332 329 326 324 323 325 335 337 331 327 321 320 323 322 322 322 322 325 329 332 330 335 334 330 332 334 335 338 339 334
325 330 332 333 334 332 333 334 333 332 332 333 333 331 329 326 325 323 329 338 335 333 329 324 323 320 320 322 322 322 323 325 328 327 326 327 327 327 328 329 330 338 339
323 329 330 332 332 331 329 330 331 329 331 333 332 331 329 328 325 324 327 335 332 329 330 323 320 320 322 321 320 319 320 321 322 325 325 326 325 325 324 325 326 325 331
323 328 330 330 331 331 330 328 327 328 332 333 331 330 329 327 325 325 325 327 328 333 330 326 324 320 321 320 320 319 320 320 321 322 323 323 325 330 327 325 323 323 324
321 323 329 330 330 331 331 331 330 331 333 331 330 329 327 326 325 325 322 322 333 332 331 326 324 323 319 319 318 317 316 317 319 320 321 320 322 329 326 322 323 325 323
318 323 324 329 330 330 331 331 330 330 329 327 327 326 325 324 326 322 321 327 330 330 325 316 320 321 319 317 315 313 312 312 312 313 315 316 319 328 329 328 329 329 327
318 322 326 326 329 329 329 330 329 330 329 328 328 327 325 328 323 323 323 321 329 328 313 313 315 317 315 314 312 309 307 306 306 307 308 310 314 319 322 322 323 324 317
316 318 323 327 327 329 330 330 330 331 330 329 328 328 328 328 326 326 327 322 320 317 313 311 312 313 313 311 308 305 304 303 303 304 305 306 309 310 312 313 315 313 309
316 317 317 319 324 327 328 329 330 331 330 330 329 329 329 329 328 327 330 329 328 323 318 313 310 310 310 307 304 303 303 304 306 307 307 307 308 308 308 308 307 307 307
316 316 317 318 320 321 324 329 333 332 331 330 329 330 329 328 329 328 330 331 331 330 326 320 312 308 307 305 303 303 304 306 306 306 306 306 306 306 306 306 306 306 306
316 316 317 317 318 320 322 324 328 330 332 331 331 331 330 330 330 329 333 329 332 330 330 328 324 312 306 304 303 303 304 305 305 305 306 306 306 307 307 307 306 306 306
315 315 315 316 317 317 319 320 322 326 331 331 331 331 331 330 329 329 329 329 330 328 328 327 327 325 310 305 303 302 304 305 305 305 306 306 307 307 307 307 307 307 307
313 313 313 314 316 316 318 320 322 322 328 329 331 331 331 330 330 329 328 327 327 327 327 326 326 324 323 310 303 302 303 304 305 305 306 307 307 307 308 307 307 307 307
312 313 313 313 314 315 316 319 323 324 330 336 331 330 329 329 329 328 329 327 327 326 326 325 324 324 322 322 309 303 302 303 304 304 305 306 307 307 307 307 308 308 307
311 312 312 313 313 314 314 317 320 324 325 329 331 329 329 328 327 329 327 326 325 325 325 324 324 323 323 322 321 309 304 301 302 303 304 305 306 306 307 307 307 307 307
311 311 312 312 312 313 314 315 321 326 327 328 332 328 327 327 327 328 327 326 324 323 325 324 323 323 322 322 321 320 312 305 302 302 303 304 305 305 306 306 306 306 306
310 310 310 311 311 312 313 317 326 329 330 328 329 327 327 326 325 325 326 327 326 325 324 323 322 322 322 321 321 319 319 316 308 305 301 302 303 304 305 305 305 305 305
309 310 311 312 314 314 315 319 327 331 329 327 325 325 325 325 328 327 325 325 327 325 325 322 323 322 320 319 320 319 318 318 317 310 306 303 301 302 302 303 304 304 304
309 311 313 314 315 318 321 324 328 327 325 324 325 326 324 323 323 323 323 323 323 324 324 324 323 322 322 321 320 319 318 317 317 316 313 309 306 303 301 301 302 303 303
309 310 313 315 317 318 322 326 326 324 322 322 322 321 320 320 320 320 321 321 320 321 321 320 320 319 319 318 318 318 317 317 316 314 314 314 312 309 306 303 301 301 302
309 311 315 317 319 320 322 321 321 321 319 319 317 317 317 316 316 317 317 316 316 316 316 316 316 314 313 313 313 313 313 313 314 313 312 311 309 307 306 305 302 300 300
307 310 311 314 318 319 320 320 320 318 316 317 316 314 313 313 312 313 313 314 314 313 313 313 312 311 310 309 308 309 309 308 308 308 307 307 304 304 304 300 300 300 299
305 306 307 309 311 311 311 312 314 315 314 310 306 305 304 304 304 304 304 305 304 305 306 306 306 307 307 306 306 305 305 304 304 304 305 305 306 307 307 307 307 303 300
304 305 305 305 304 304 305 306 305 305 304 303 303 302 302 301 301 301 301 301 301 300 301 300 300 300 300 300 301 302 302 301 301 301 301 302 303 303 304 305 305 306 306
301 302 302 302 302 302 302 302 303 304 302 301 300 299 299 298 297 296 295 294 294 293 292 292 292 291 291 293 294 295 296 297 298 296 297 298 298 298 299 300 301 304 305
300 300 301 302 302 301 301 301 301 301 300 298 297 296 295 294 294 294 292 292 291 291 290 289 289 288 288 288 288 287 287 287 287 287 288 288 288 291 291 292 295 299 300

GFSSE_850_thetae_030.txt.gz
Theta_e
329 332 335 339 339 336 334 335 334 334 334 333 332 330 327 325 324 326 336 338 335 329 325 321 320 322 322 322 323 324 328 331 331 332 333 329 329 332 335 338 340 337 328
327 332 333 335 338 335 334 334 333 332 333 333 332 330 328 326 325 325 336 337 334 327 327 322 322 320 319 320 321 322 324 325 326 326 326 326 325 326 327 329 334 339 339
325 330 332 334 334 332 333 334 333 331 333 333 332 330 329 327 325 324 331 333 325 332 329 322 320 320 321 321 320 320 320 320 322 324 325 334 331 327 324 324 326 326 336
324 329 330 332 333 331 330 331 331 329 332 333 331 330 328 327 325 326 325 324 333 331 326 325 324 320 321 320 320 320 320 320 321 322 332 332 334 331 327 325 324 323 324
324 328 330 330 331 331 330 328 328 329 333 332 329 328 326 326 325 324 321 323 332 331 328 322 321 322 320 318 317 315 315 315 317 321 329 329 333 326 326 325 323 323 323
322 325 330 331 331 331 331 331 331 331 333 330 327 326 324 324 325 322 322 329 330 327 315 314 318 319 318 316 314 313 311 311 311 313 322 325 332 333 327 326 327 323 319
320 324 325 330 331 331 331 331 331 330 331 329 328 328 327 329 324 322 323 321 327 317 312 311 313 315 314 313 312 309 306 305 306 307 308 318 318 320 321 322 322 319 312
319 322 326 326 329 330 331 330 330 330 331 330 329 328 328 331 328 327 328 324 323 321 317 311 311 311 311 310 307 305 304 304 304 304 306 308 309 311 312 313 314 314 311
317 319 323 326 327 328 330 331 334 335 335 335 331 329 329 330 330 328 329 330 330 329 324 319 310 309 308 306 304 303 303 305 306 307 307 308 308 308 308 307 307 307 307
317 317 318 319 323 327 328 329 331 333 332 332 331 330 330 330 329 329 328 330 330 329 329 327 323 311 307 305 303 303 304 306 306 306 306 306 306 306 306 306 306 306 306
316 316 317 317 318 319 323 328 329 332 333 332 331 330 331 330 330 330 329 331 330 330 329 327 327 323 310 305 303 302 303 305 305 305 305 306 306 306 306 306 307 307 307
315 315 315 316 318 318 317 318 323 328 330 332 332 332 332 330 330 330 328 328 327 329 327 326 325 324 323 311 304 302 302 304 305 305 305 306 306 307 307 307 307 307 307
313 313 313 314 316 318 320 322 322 327 332 331 331 331 331 330 330 329 328 327 327 326 326 325 325 324 322 323 313 303 302 303 304 304 305 305 306 306 306 306 307 307 307
312 312 313 313 313 314 317 321 322 330 332 332 330 331 330 330 329 329 327 327 327 325 325 325 324 323 323 322 322 316 304 301 302 303 304 305 305 306 306 306 306 306 307
312 312 312 312 313 313 313 318 322 330 332 329 329 328 329 327 327 328 328 328 326 324 323 323 324 323 322 322 322 321 318 307 302 302 303 303 304 305 305 305 305 306 307
311 311 311 312 312 312 313 314 325 332 331 331 329 325 326 328 327 326 327 328 327 325 324 323 325 322 321 322 322 321 320 318 312 305 302 302 303 303 304 304 305 305 306
310 311 311 312 312 313 313 317 325 331 331 330 326 327 326 325 325 325 326 329 327 327 325 325 324 323 321 321 320 319 319 319 318 317 310 306 302 302 302 303 303 304 304
310 311 313 313 314 315 320 328 330 328 326 327 326 325 324 324 326 326 326 325 325 326 327 325 324 323 324 321 320 319 319 319 318 318 317 316 309 305 302 301 302 303 303
310 313 315 317 318 320 328 326 326 325 325 326 325 325 323 323 323 323 322 322 322 323 323 323 322 322 322 321 321 320 319 318 317 317 316 316 316 314 309 306 301 301 301
310 314 316 318 322 326 327 327 325 324 323 324 322 321 320 320 319 319 319 319 318 318 318 318 318 318 317 316 316 316 315 314 314 313 313 312 312 312 312 310 308 304 300
310 314 317 321 321 321 322 322 322 322 320 320 319 318 317 317 316 316 317 316 316 315 315 315 315 315 313 312 311 309 308 309 310 310 309 307 303 304 304 303 302 303 303
310 315 318 319 320 319 320 320 320 319 317 316 314 313 311 310 310 310 310 310 310 309 309 310 309 308 307 306 305 306 308 307 307 306 306 307 307 307 306 306 306 306 303
309 310 312 315 317 319 319 319 317 315 312 308 306 304 304 303 303 303 303 303 302 302 302 301 301 301 301 301 301 302 304 305 302 303 302 303 303 301 301 302 303 304 306
307 309 310 311 311 311 311 310 308 305 304 303 303 302 302 301 300 300 299 298 298 297 297 295 294 294 292 293 293 294 296 297 299 299 299 295 293 291 293 294 295 298 300
304 305 304 304 304 304 304 303 303 304 303 301 300 299 298 297 296 295 295 293 293 293 292 291 291 290 290 290 289 289 289 290 292 290 292 290 290 290 290 290 292 292 293
302 302 302 302 303 302 302 301 301 301 301 299 298 297 296 294 294 293 293 292 291 291 290 290 289 289 288 288 287 287 287 286 287 287 288 288 288 288 288 289 289 290 291

GFSSE_850_thetae_033.txt.gz
Theta_e
336 338 335 337 336 335 335 334 334 333 333 333 331 328 326 325 326 334 337 336 333 326 324 321 320 321 322 322 323 327 329 330 329 327 326 327 328 331 335 339 339 334 327
337 336 335 338 337 335 334 334 333 333 333 332 331 329 327 326 325 333 336 335 325 330 323 321 321 321 319 319 320 322 323 324 324 325 327 331 325 325 327 328 332 339 339
337 338 333 338 337 334 334 334 333 331 333 332 331 329 328 326 325 328 331 326 333 327 327 324 320 320 320 320 320 320 320 321 322 324 332 335 332 327 325 323 325 326 335
334 340 335 335 336 333 333 334 333 330 332 333 331 329 327 326 325 328 324 328 334 330 328 326 323 320 319 320 319 318 319 319 321 327 333 332 333 329 324 322 324 323 324
329 338 339 334 333 332 330 332 330 329 333 332 329 328 326 326 326 323 322 327 330 329 320 315 321 320 318 317 316 314 313 314 316 330 331 326 333 330 327 327 324 323 324
331 338 334 332 333 332 331 329 329 330 333 331 328 327 326 327 325 323 323 329 328 321 314 311 318 319 317 315 314 312 310 310 314 329 330 327 331 333 326 322 326 316 311
334 332 331 332 334 336 335 333 332 333 333 331 329 328 330 330 325 323 324 324 322 321 316 311 312 313 313 312 310 307 305 305 318 325 327 329 317 325 316 314 314 313 311
322 325 327 330 332 335 336 336 336 336 335 333 331 329 329 332 328 328 327 325 324 324 320 315 310 310 310 308 305 304 303 303 314 316 318 321 311 312 312 312 311 311 309
317 320 323 326 328 330 332 335 335 335 335 335 334 332 330 331 331 330 329 330 329 329 328 324 320 309 308 305 303 303 303 305 308 307 313 312 308 308 308 307 307 307 307
318 319 320 322 322 326 328 331 334 334 335 334 334 331 330 330 330 329 329 330 330 329 327 326 325 322 310 306 303 302 304 305 306 306 307 306 306 306 306 306 306 306 306
317 318 318 319 320 323 327 332 330 332 333 333 333 331 330 330 331 331 331 328 328 328 327 326 324 324 323 312 304 302 303 304 305 305 305 305 305 306 306 306 306 306 306
315 315 316 317 318 319 320 323 326 331 331 333 333 333 331 333 333 332 331 328 327 326 326 325 325 324 323 322 318 304 302 303 304 304 304 305 305 306 306 306 307 307 307
312 312 312 313 315 318 320 320 321 325 330 333 334 335 334 333 331 329 328 328 327 325 325 324 324 324 322 322 322 319 305 301 302 303 304 304 305 305 306 306 306 307 307
312 312 312 312 312 313 317 323 324 330 331 330 334 332 333 332 332 330 329 327 327 327 325 323 323 323 323 323 322 322 321 310 302 302 303 303 304 304 305 305 305 306 307
311 312 312 312 312 312 313 322 331 331 330 331 331 330 330 329 329 328 329 328 329 326 325 323 322 322 323 322 321 322 321 320 317 307 303 302 303 303 304 304 304 305 309
311 311 312 312 312 312 312 319 327 329 330 328 329 329 327 328 327 326 326 328 328 327 325 324 324 324 322 321 321 321 319 319 320 319 317 312 305 302 302 303 304 304 304
311 311 312 312 312 312 313 322 329 328 330 330 327 324 324 325 325 325 325 325 326 328 325 325 326 325 324 322 321 320 319 319 319 319 318 318 317 315 307 302 302 303 303
311 312 313 314 314 314 320 328 329 328 328 326 326 325 325 324 324 324 325 324 324 325 325 324 324 323 324 323 322 321 321 320 319 318 317 317 316 315 316 311 306 302 301
310 312 314 316 317 319 326 325 326 325 325 325 324 325 324 323 323 322 322 322 322 322 322 322 322 321 320 320 319 319 319 318 317 316 315 314 314 313 312 313 311 308 304
311 313 317 321 321 324 324 324 324 324 324 323 323 321 320 319 319 319 318 317 317 317 316 316 316 315 315 314 314 312 312 311 311 311 309 309 307 305 305 305 305 304 304
312 316 318 321 322 323 323 323 324 323 322 321 319 319 318 316 316 317 316 315 313 312 312 312 312 312 310 308 306 306 309 308 307 305 306 305 305 305 306 306 306 306 306
314 318 319 320 320 320 321 322 321 320 319 318 315 312 311 310 310 308 307 306 305 305 304 304 303 303 302 302 302 306 309 307 306 303 303 302 302 302 296 296 297 297 299
313 316 318 318 319 319 320 319 319 317 315 311 309 306 305 304 303 303 302 302 301 300 300 299 298 297 295 295 295 297 303 304 297 303 301 298 295 295 293 293 293 292 293
311 316 317 317 318 319 319 318 315 312 306 305 303 303 302 301 300 299 299 298 297 297 296 296 295 294 293 292 292 291 290 293 296 294 295 293 291 290 290 292 292 292 292
311 313 314 316 316 316 315 313 307 304 303 303 302 301 300 298 297 297 296 295 295 294 293 292 292 292 291 290 290 289 289 289 291 289 289 289 289 288 289 288 290 290 291
308 310 310 310 310 308 306 304 303 303 303 302 300 298 297 296 295 295 294 293 293 292 292 291 290 289 289 288 288 287 287 286 286 286 286 286 286 287 287 288 287 288 288

GFSSE_850_thetae_036.txt.gz
Theta_e
341 335 334 334 334 334 334 333 333 333 332 331 328 327 326 327 336 335 335 327 328 325 321 321 319 319 320 321 323 325 326 326 325 325 326 325 326 329 332 337 338 334 327
336 337 334 336 335 334 334 334 333 332 332 331 329 328 328 326 332 332 331 324 327 325 322 320 320 320 320 319 319 320 320 321 323 331 332 332 325 323 324 326 330 338 338
340 335 335 337 336 334 334 333 332 331 332 331 330 328 327 325 328 332 326 332 333 328 326 325 321 320 320 319 319 319 320 321 326 333 334 333 332 326 323 323 323 325 334
339 337 334 337 336 334 334 333 332 331 332 331 329 327 326 325 327 326 325 330 330 326 315 317 322 320 318 318 317 316 317 319 327 332 332 331 330 326 322 319 321 322 323
338 340 337 336 338 333 333 333 331 330 333 330 327 325 324 323 323 320 325 327 326 317 312 312 320 319 317 316 314 313 312 314 328 330 325 329 332 332 325 320 317 320 322
337 339 337 335 337 336 333 331 329 329 333 330 327 327 325 326 322 323 329 326 321 316 313 310 313 315 313 313 312 309 309 313 326 328 329 327 329 331 328 320 317 314 311
330 337 334 333 333 335 334 331 330 331 333 331 329 329 330 329 325 325 325 321 321 322 318 311 310 310 310 310 308 306 305 308 316 322 324 323 316 322 314 314 314 312 311
326 334 329 332 332 336 336 335 334 335 334 333 331 330 330 331 329 328 327 326 326 326 325 320 315 308 307 306 304 303 303 306 309 313 311 311 310 310 310 309 309 308 308
320 326 329 331 332 333 335 335 335 335 335 334 334 333 331 330 331 330 328 329 329 328 326 325 322 318 308 305 303 303 304 306 307 308 309 308 308 307 307 307 306 306 307
318 320 321 323 326 328 332 333 334 334 334 334 334 333 330 330 330 330 329 330 329 327 325 323 323 324 322 308 304 302 304 305 306 306 306 306 306 306 307 307 307 307 307
318 318 319 320 321 322 326 332 331 333 334 334 333 332 330 329 332 331 331 328 327 326 326 325 324 323 322 321 310 303 302 304 305 305 305 305 305 306 306 307 307 307 307
315 315 316 318 319 320 323 327 334 331 331 331 332 332 332 331 335 333 331 329 327 326 325 324 323 323 322 321 321 317 305 303 303 304 304 305 305 306 306 306 306 307 307
312 313 313 313 315 318 320 323 330 330 331 333 334 335 335 334 333 331 330 328 327 326 325 324 323 322 322 322 322 321 321 315 304 302 303 304 304 305 306 306 306 306 307
311 312 312 312 312 312 316 319 327 329 330 331 332 332 333 333 332 332 330 329 326 327 325 324 323 322 321 321 321 321 321 320 320 314 305 302 302 303 304 305 305 306 311
312 312 312 312 312 312 313 321 328 328 328 330 330 332 332 331 331 329 328 328 328 328 326 325 323 322 322 321 321 320 320 319 318 319 318 314 308 304 302 302 303 304 304
312 312 312 312 312 312 312 315 323 330 329 330 330 329 329 328 328 327 326 324 325 325 327 325 325 325 324 322 321 321 320 319 319 319 318 318 317 316 313 306 302 302 303
311 312 312 312 312 312 313 320 328 328 329 327 327 323 323 323 324 324 323 323 323 324 327 324 324 323 323 322 323 321 321 320 319 318 317 316 316 315 315 315 311 305 301
311 312 312 312 312 313 317 323 326 326 326 325 325 324 324 323 323 322 322 323 323 323 324 323 323 322 322 321 321 320 319 319 318 317 317 316 314 313 311 311 311 310 307
311 311 313 314 315 316 324 325 326 325 324 324 324 324 324 322 322 321 321 321 321 320 319 319 319 319 318 317 316 314 313 313 313 313 312 310 308 306 305 305 305 305 305
311 312 314 316 319 322 323 323 324 324 323 323 323 322 321 320 320 319 318 318 317 317 316 315 315 315 314 313 309 308 309 309 308 308 308 307 306 306 305 304 303 304 305
312 313 317 320 321 321 321 322 322 322 322 323 321 319 318 318 316 317 316 314 310 309 308 307 307 305 304 303 303 307 309 308 305 304 304 304 303 302 296 294 295 294 295
311 314 318 319 319 320 321 321 321 320 321 320 319 317 312 313 312 310 307 305 303 302 302 301 300 300 299 299 298 304 307 305 302 302 302 300 298 294 293 293 293 292 292
312 315 317 318 318 319 319 319 321 320 318 317 313 310 308 305 304 303 302 301 300 299 298 297 297 296 296 296 296 295 297 299 294 301 297 296 293 292 291 291 291 291 291
312 314 316 316 316 316 319 319 319 317 314 310 307 304 303 302 300 299 298 298 297 297 296 296 295 295 294 294 293 292 291 291 293 292 291 291 289 289 289 289 289 289 289
312 314 314 315 316 318 318 318 316 314 307 304 303 302 300 299 298 298 297 296 296 295 295 294 293 292 292 291 291 290 290 289 288 287 287 288 288 288 287 288 287 287 287
311 315 315 316 317 317 317 316 311 305 303 303 301 300 298 298 297 297 296 295 295 294 293 292 292 291 290 289 288 288 287 287 286 286 285 286 286 286 287 286 287 286 286

GFSSE_850_thetae_042.txt.gz
Theta_e
337 333 334 334 333 333 332 332 331 329 328 328 328 334 334 331 324 325 323 322 322 320 319 320 319 319 319 320 321 323 327 326 331 331 330 328 323 324 327 335 337 334 333
335 333 333 333 333 332 332 332 331 330 331 332 327 332 331 332 323 330 324 319 314 317 320 319 319 319 319 319 320 325 327 326 329 331 330 329 326 321 322 324 331 337 336
337 333 333 333 333 333 332 331 331 331 329 327 325 325 332 330 325 328 324 318 312 313 320 318 317 316 316 317 319 323 326 326 325 328 327 329 330 327 319 322 322 324 330
335 333 334 334 333 333 332 331 331 331 328 325 322 323 323 321 321 325 321 315 312 310 314 316 315 314 314 313 314 320 323 325 325 326 327 330 330 326 318 315 318 320 321
334 333 335 334 333 333 332 331 329 331 328 324 322 322 321 319 323 324 319 316 315 312 309 310 311 311 310 310 311 317 321 322 322 321 325 327 328 326 313 312 311 311 311
335 333 335 335 333 333 332 331 329 331 329 324 324 324 324 322 325 325 323 322 321 320 315 309 308 307 307 306 308 311 315 316 319 319 316 319 316 314 310 310 310 310 309
335 335 334 335 333 332 331 330 328 330 330 327 328 328 328 326 326 326 326 326 325 324 322 318 310 306 304 304 304 307 310 310 312 314 313 310 310 309 308 307 307 307 307
337 337 334 334 334 333 330 330 329 331 331 330 329 330 329 329 328 328 327 326 327 326 321 320 319 311 305 303 303 304 306 307 309 309 308 308 307 307 307 306 306 307 308
333 334 335 334 333 333 333 332 332 333 332 332 331 331 329 329 329 329 328 328 327 326 323 320 320 320 315 304 302 303 304 305 306 306 305 305 305 306 306 306 306 307 307
330 330 330 334 333 334 334 333 332 333 333 332 332 331 330 329 329 329 328 327 326 325 323 322 320 319 319 319 312 304 302 303 304 304 304 305 305 305 306 306 307 307 307
324 325 323 325 331 332 333 333 333 332 333 333 333 332 331 330 329 330 328 327 326 324 323 322 321 321 319 319 319 319 317 307 303 303 303 304 304 305 305 305 306 307 307
319 321 321 323 323 321 323 335 337 334 333 333 333 332 332 331 330 332 329 327 326 325 324 323 322 321 321 320 319 319 319 319 318 314 305 302 302 303 304 307 321 319 320
315 316 317 318 319 320 323 328 335 334 334 332 331 330 331 331 332 332 330 329 327 325 324 323 322 321 321 320 320 320 319 319 318 318 318 314 306 302 302 302 303 307 317
314 313 313 314 314 316 320 324 330 333 332 331 331 331 331 331 332 332 330 328 329 328 326 325 323 322 321 321 320 320 319 319 318 318 318 317 317 315 313 309 303 302 302
313 312 312 312 312 312 316 322 325 330 332 333 331 330 330 331 331 330 328 327 330 326 326 325 324 322 323 322 321 320 320 319 318 317 317 317 317 316 316 315 315 314 307
313 313 312 312 312 312 312 321 327 331 333 330 331 329 331 330 329 329 329 328 324 323 323 322 323 322 323 323 322 321 320 319 316 317 316 315 316 316 314 313 312 312 312
313 313 313 312 312 312 312 320 329 327 328 328 328 328 328 329 329 330 327 326 327 326 322 321 321 323 323 322 320 318 319 316 316 315 315 313 311 310 308 307 306 306 307
313 313 312 312 312 312 313 323 326 326 326 326 327 327 327 327 327 325 323 322 321 321 321 322 322 321 320 318 317 316 314 313 312 311 310 309 307 306 305 302 300 299 300
313 312 312 312 312 312 316 324 325 324 324 322 322 324 323 323 322 322 321 321 322 321 321 319 318 317 315 314 313 311 308 307 306 306 306 306 305 302 299 296 295 295 294
312 312 312 312 312 313 318 324 323 323 322 322 322 322 323 322 321 321 320 319 319 318 316 314 312 310 307 306 307 307 307 306 305 304 303 301 299 296 294 293 293 293 293
311 312 312 312 312 315 319 320 322 321 321 321 320 321 323 321 320 320 318 317 317 312 307 305 303 302 302 303 305 306 305 304 304 303 301 299 296 293 292 292 291 291 291
311 311 312 312 313 315 318 320 321 321 320 320 320 321 321 319 318 317 315 311 306 304 302 300 299 298 298 300 301 305 303 300 301 300 298 297 292 291 291 291 290 290 289
310 311 312 313 314 316 319 320 320 320 319 319 319 320 318 317 315 312 306 303 301 300 299 298 297 297 297 296 295 296 298 299 294 295 296 292 291 290 290 289 289 288 288
310 311 312 314 316 318 319 319 319 319 318 318 320 318 315 313 309 303 301 300 299 298 298 297 297 296 295 295 294 294 293 292 291 291 290 290 289 289 288 288 287 287 286
309 311 312 315 317 318 317 318 318 319 318 318 318 315 312 305 301 299 298 298 297 297 297 296 295 295 294 294 293 292 292 291 290 289 289 289 288 287 287 286 286 286 285
309 311 312 315 316 316 316 316 317 319 318 318 315 310 305 301 299 298 298 297 297 296 296 295 295 294 293 293 292 291 290 289 288 288 287 287 287 287 286 286 285 285 285

GFSSE_850_thetae_045.txt.gz
Theta_e
337 333 335 334 334 332 331 330 329 328 329 333 334 331 329 324 324 320 317 318 320 319 319 319 319 319 319 320 322 325 326 329 330 329 328 325 321 323 329 336 336 335 334
335 333 334 333 333 331 332 331 329 331 328 331 331 333 329 329 324 319 313 311 316 319 318 317 318 318 319 321 323 325 329 328 330 328 329 330 328 319 320 323 332 336 335
334 333 333 333 332 332 331 331 330 328 326 324 328 326 322 321 324 317 313 311 312 316 316 315 315 315 316 319 324 329 328 326 325 327 330 330 329 321 315 319 320 321 325
335 332 333 333 332 332 331 331 330 328 325 322 322 321 321 321 323 318 315 312 310 310 311 312 312 312 313 314 318 321 321 322 323 325 327 327 327 323 318 311 311 313 317
336 332 333 333 333 332 331 330 330 329 324 322 321 321 320 323 324 322 320 317 315 312 309 309 309 309 310 310 312 315 316 318 320 319 318 320 319 313 312 310 310 309 309
334 334 334 334 333 333 332 330 329 330 326 322 321 323 323 324 325 325 325 323 320 318 315 309 307 306 306 307 309 311 312 310 311 311 310 309 309 308 307 307 307 307 307
333 333 335 334 333 333 332 330 328 330 328 324 324 325 325 327 327 326 325 325 325 321 318 317 309 305 304 304 304 305 307 309 309 309 308 307 307 307 307 307 307 308 308
332 333 335 335 333 332 331 330 328 329 329 327 327 327 327 327 327 327 326 327 327 324 321 318 317 309 304 303 304 304 305 306 306 306 306 306 306 307 307 307 307 308 308
334 331 332 332 333 333 331 329 328 330 330 330 329 329 328 328 328 327 327 327 326 324 321 319 319 319 313 305 303 303 303 304 305 305 305 305 306 307 307 307 307 307 308
334 334 333 332 332 331 331 331 331 332 331 332 332 331 329 329 328 328 327 326 324 323 321 321 320 318 318 319 316 308 303 302 303 303 304 304 305 312 313 312 311 312 310
331 329 328 335 333 333 333 333 332 333 333 333 332 332 330 329 329 329 327 326 324 323 322 321 321 320 320 319 319 318 318 315 311 305 303 303 303 305 310 321 321 322 322
325 326 326 326 337 339 338 334 334 333 333 333 333 333 332 331 330 330 328 327 325 324 323 322 321 321 320 320 320 319 318 318 318 317 316 308 304 303 302 303 304 308 313
321 322 323 323 323 324 324 335 332 331 331 332 333 335 332 331 329 331 329 328 327 325 323 322 321 321 321 320 320 319 319 319 318 318 318 317 317 316 315 312 308 303 303
315 317 318 320 322 323 323 323 333 331 331 330 331 334 330 330 331 330 331 328 327 326 326 325 323 321 321 321 320 319 319 318 318 317 317 317 317 317 317 316 315 315 314
314 314 313 314 314 315 319 321 329 332 330 329 330 331 329 330 330 332 331 328 326 328 326 324 324 323 322 322 321 321 320 319 317 317 316 315 315 315 314 313 313 312 312
314 313 312 312 312 312 312 318 329 332 329 328 329 329 329 328 328 331 329 327 325 326 325 323 324 321 321 321 320 319 316 316 315 315 315 314 313 310 309 308 306 306 308
313 313 312 312 312 312 311 317 327 325 328 328 329 328 328 328 329 328 328 327 325 325 323 322 320 322 322 321 318 316 316 315 314 312 310 309 307 306 305 303 301 300 300
313 313 313 313 313 312 312 315 322 328 326 326 328 327 327 327 327 327 326 327 324 324 323 321 321 321 319 318 316 314 312 310 308 307 306 306 304 302 300 298 296 295 295
312 312 313 312 312 312 312 316 323 325 326 325 325 325 326 326 327 327 326 322 321 320 321 322 320 318 316 315 313 311 307 306 305 304 304 302 299 297 296 295 294 293 293
312 312 312 312 312 312 313 315 324 323 323 323 324 324 325 325 324 322 321 319 320 320 319 318 316 315 313 310 308 306 306 304 303 303 301 299 297 295 293 292 292 292 292
311 312 312 312 312 313 314 319 322 322 322 321 321 320 322 322 322 320 320 319 319 317 314 311 307 305 305 306 304 304 303 303 303 301 300 297 294 292 291 291 291 290 290
311 312 312 312 312 312 315 315 318 321 320 320 320 319 321 322 321 320 319 317 317 312 306 302 301 301 302 303 303 303 302 300 300 299 296 296 291 291 290 290 289 289 288
311 311 312 312 312 313 316 319 320 321 320 319 318 318 319 320 319 318 316 315 308 304 301 299 298 297 298 299 301 299 301 300 298 294 295 291 290 290 289 289 288 287 287
311 311 311 312 312 313 316 318 318 319 319 318 318 317 319 318 316 315 311 305 302 299 299 298 297 296 296 296 295 294 293 293 292 291 290 290 289 289 288 287 287 286 286
311 311 310 311 313 314 316 318 318 318 319 319 317 317 318 316 313 308 302 300 299 298 298 297 297 296 296 295 294 293 293 292 291 290 289 289 289 287 287 286 286 286 285
310 309 310 312 313 315 317 317 317 317 318 318 317 317 317 313 308 300 298 298 297 297 297 297 296 296 295 294 294 293 292 291 290 289 289 288 288 287 286 286 285 285 285

GFSSE_850_thetae_048.txt.gz
Theta_e
333 335 335 336 335 332 329 328 329 331 335 333 331 326 322 318 315 312 313 318 318 318 318 318 318 318 318 321 324 326 328 328 328 329 330 324 320 324 331 335 335 334 334
333 334 334 334 333 331 330 329 330 329 331 331 330 328 320 317 313 311 311 316 316 316 315 316 317 317 318 323 327 325 324 324 327 329 328 326 317 318 320 322 329 334 334
333 333 333 333 331 331 330 331 330 326 329 329 325 324 321 317 314 311 310 311 312 313 313 313 313 314 315 318 318 317 317 318 321 323 322 314 319 314 311 314 316 319 321
332 333 332 332 332 331 330 330 328 325 328 323 320 318 322 322 319 316 314 311 309 310 310 311 311 311 312 312 313 313 313 314 315 313 314 311 310 309 309 309 309 309 310
333 332 333 332 332 331 330 330 329 326 322 320 320 320 323 324 324 324 322 318 316 311 308 308 308 308 309 311 311 311 310 311 311 310 309 308 308 307 307 307 308 308 308
334 332 333 333 332 332 331 330 329 327 323 321 322 323 324 326 325 325 325 324 320 317 313 307 305 305 307 308 308 307 308 309 309 309 308 307 307 308 308 308 308 308 308
334 333 333 333 333 332 331 330 328 329 326 323 324 325 325 326 326 325 326 325 323 320 317 309 304 304 305 306 307 307 308 308 307 306 306 307 309 312 314 312 311 310 309
332 333 334 334 333 332 332 330 328 329 328 326 328 327 327 327 326 326 326 325 323 321 319 318 310 304 303 303 304 305 305 305 305 305 306 308 318 319 318 315 312 312 312
332 332 333 334 332 331 331 330 328 329 329 328 328 328 327 327 327 326 326 325 320 320 319 318 318 318 312 305 303 302 303 303 303 304 305 312 319 322 320 320 321 321 318
331 331 331 332 333 332 331 330 329 329 330 329 329 329 328 328 327 327 327 326 323 320 320 320 319 318 317 317 317 315 309 306 303 302 303 304 307 318 316 315 320 319 321
332 331 331 331 332 333 333 332 331 331 331 331 331 331 329 329 328 328 327 326 325 323 321 321 320 319 319 319 318 318 317 317 317 316 313 307 306 304 304 304 306 308 313
329 330 330 335 336 338 335 333 332 330 331 332 332 332 331 330 329 328 327 326 325 323 322 321 321 320 320 319 319 318 318 318 318 317 317 316 317 317 317 316 314 308 305
323 325 326 326 326 337 336 333 332 330 330 331 331 331 330 329 329 328 328 327 326 325 323 321 321 320 320 320 319 319 318 318 317 317 316 316 316 316 316 316 317 316 316
319 320 321 322 322 322 326 326 332 331 330 329 329 329 330 328 327 328 330 329 327 326 325 324 322 321 321 320 320 319 319 319 317 317 315 315 316 315 314 313 313 315 314
317 317 318 319 320 322 323 322 322 329 330 330 329 329 330 329 329 328 329 329 327 325 325 324 323 323 322 321 320 319 318 315 314 315 314 314 312 310 308 307 309 312 311
315 314 314 314 314 315 317 320 322 323 329 330 329 329 330 328 328 329 330 329 327 325 323 323 323 321 320 319 318 315 314 314 313 312 311 309 307 306 304 302 301 302 305
314 314 314 313 312 312 312 312 319 329 327 329 327 327 328 327 327 327 329 328 326 324 322 322 320 319 319 317 316 315 314 311 309 307 306 305 303 301 299 298 297 296 296
314 313 312 312 312 312 311 311 316 326 328 322 326 327 327 327 326 326 328 326 325 323 320 319 321 320 318 317 315 312 310 307 305 305 304 302 300 298 297 295 295 294 294
313 312 312 312 312 312 312 311 319 324 323 325 325 326 327 326 326 327 326 325 323 322 322 321 320 319 317 314 312 309 305 305 304 303 301 300 298 295 294 293 293 293 293
312 312 312 312 312 312 312 312 319 322 323 324 325 325 325 325 326 327 324 324 323 320 321 321 320 317 314 312 309 305 304 304 302 301 300 297 295 293 293 292 291 291 291
312 312 312 312 313 313 312 312 319 318 323 323 323 322 323 322 325 324 325 322 319 320 320 319 317 314 312 309 305 304 303 302 301 300 298 295 292 292 291 290 290 290 290
313 312 312 312 312 313 312 313 318 317 322 321 321 321 321 321 323 323 321 319 319 319 316 313 311 308 306 305 303 302 301 299 299 299 295 293 291 290 290 290 289 289 288
313 313 312 311 312 312 312 314 317 318 321 320 320 319 318 318 323 321 320 319 317 316 310 304 302 302 301 302 300 300 300 300 299 294 295 291 290 290 289 289 288 288 287
315 313 312 311 311 312 312 313 316 317 318 319 319 318 317 318 319 320 319 316 315 309 303 300 299 298 298 298 298 297 295 294 293 293 291 290 289 288 288 288 287 287 286
314 313 312 310 310 311 312 313 315 317 318 318 319 317 316 317 319 318 316 314 309 302 299 298 297 297 296 296 295 295 294 293 293 292 290 290 288 287 287 287 286 286 286
313 312 311 309 309 311 312 313 314 318 319 319 318 317 316 316 317 315 313 308 302 298 297 297 297 297 296 296 295 294 294 293 292 291 290 289 288 287 287 287 286 286 285